Location: Newark
(28.5667°N, 77.2000°E)
Time: 03:30:19
(UTC+00:00)

Envisat - Visible Passes

Search period start: 22 July 2019 00:00
Search period end: 01 August 2019 00:00
Orbit: 764 x 766 km, 98.1° (Epoch: 21 July)

Date Brightness Start Highest point End Pass type
(mag) Time Alt. Az. Time Alt. Az. Time Alt. Az.
23 Jul 5.3 14:10:06 10° SSW 14:14:15 25° W 14:18:25 10° NW visible
25 Jul 5.9 14:37:37 10° WSW 14:39:55 13° W 14:42:12 10° WNW visible
28 Jul 5.7 14:25:18 10° SW 14:28:36 17° W 14:31:55 10° NW visible
31 Jul 5.5 14:13:20 10° SSW 14:17:17 23° W 14:21:15 10° NW visible
